Tracking 30995 objects as of 7-Jul-2025
HD Live streaming from Space Station
objects crossing your sky now

THOR ABLESTAR DEB

Track THOR ABLESTAR DEB now!
10-day predictions


NORAD ID: 13511
Int'l Code: 1961-015KU
Perigee: 924.0 km
Apogee: 1,106.5 km
Inclination: 65.8 °
Period: 105.3 minutes
Semi major axis: 7386 km
RCS: 0.0083 m2 (small)
Launch date: June 29, 1961
Source: United States (US)
Launch site: AIR FORCE EASTERN TEST RANGE (AFETR)

Note: This is SATELLITE DEBRIS
Your satellite tracking list
Your tracking list is empty




NASA's NSSDC Master Catalog

Two Line Element Set (TLE):
1 13511U 61015KU  25187.57807021  .00000072  00000-0  17007-3 0  9994
2 13511  65.8429 345.0023 0123488 337.7326  90.5595 13.67622105243837
Source of the keplerian elements: AFSPC